sat.trackr.live / text

‹ back to catalog

STARLINK-1958

NORAD 47559 · 2021-009M

PAYLOAD ACTIVE UNKNOWN

§ Identity

Operator
Country
US
Launch date
2021-02-04
Launch site
AFETR
Launch vehicle
Mass (kg)
RCS (m²)

Purposes: comms

External: N2YO · Heavens-Above · Gunter

§ Orbital elements

Epoch: 2026-05-25T03:42:15.611040Z

Period
90.69 min
Inclination
53.0357°
Eccentricity
0.0007975
Mean motion
15.87760230 rev/d
Perigee alt
303.2 km
Apogee alt
313.9 km
Semi-major
6,686.7 km
B*
8.3890e-4
RAAN
299.6382°
Arg perigee
253.8552°
Mean anomaly
106.1595°
Rev number
29,370

§ Raw data

STARLINK-19581 47559U 21009M   26145.15434735  .00236062  00000+0  83890-3 0  99912 47559  53.0357 299.6382 0007975 253.8552 106.1595 15.87760230293709

JSON: /api/v1/satellites/47559 · /tle

For live sub-satellite position, see the globe view (requires WebGL).

§ Visibility from observer

Set your observer location to see the next 7 days of passes ≥ 10°. The values pass through the URL so the page stays shareable.

No JS? Fill the form by hand. The geolocation button needs JavaScript.